Regional Weather Roundup
Issued by NWS Goodland, KS

Home | Current Version | Previous Version | Graphics & Text | Print | Product List | Glossary On
Versions: 1 2 3 4 5 6 7 8 9 10 11 12 13 14 15 16 17 18 19 20 21 22 23 24 25 26 27 28 29 30 31 32 33 34 35 36 37 38 39 40 41 42 43 44 45 46 47 48 49 50
000
ASUS43 KGLD 231159
RWRGLD

GOODLAND FORECAST AREA HOURLY WEATHER ROUNDUP
NATIONAL WEATHER SERVICE GOODLAND KS
600 AM MDT SAT AUG 23 2014

...OFFICIAL OBSERVATIONS...

CITY           SKY/WX    TMP DP  RH WIND       PRES   REMARKS
GOODLAND KS    MOCLDY    64  63  96 NW7       29.88F
HILL CITY KS   PTCLDY    67  66  97 E5        29.86R
IMPERIAL NEB   MOCLDY    65  63  93 E5        29.88F
MCCOOK NEB     PTCLDY    65  64  97 N6        29.87S
AKRON CO       CLOUDY    61  60  97 SE5       29.95R
BURLINGTON CO  PTCLDY    62  60  93 CALM      29.91F
LIMON CO       FOG       56  56 100 S3        29.99F VSB 1/4
$$

...UNOFFICIAL OBSERVATIONS...

CITY           SKY/WX    TMP DP  RH WIND       PRES   REMARKS
COLBY KS       CLEAR     64  64 100 CALM      29.88F FOG
NORTON KS      CLEAR     68  64  88 CALM      29.85S
SHARON SPRINGS   N/A     64  63  96 CALM        N/A
WAKEENEY KS      N/A     68  64  86 MISG        N/A
KIT CARSON CO    N/A     60  58  92 MISG        N/A
YUMA CO          N/A     62  62 100 CALM        N/A
$$


USA.gov is the U.S. government's official web portal to all federal, state and local government web resources and services.